OPS 4682 DEB, 38381

Orbit data source: Space-Track

OPS 4682 DEB, 38381 is space debris in LEO originally from a launch on Sat, 03 Apr 1965 UTC launched from the Air Force Western Test Range (AFWTR). Debris objects in space refer to the collection of defunct objects orbiting the Earth. Examples of debris include non-operational satellites, rocket bodies, and fragments generated from explosions, collisions, or faulty payload assembly.

Loading next visibility...
Identifier
38381, 1965-027CJ
Orbit
LEO
Country
Flag of USUS
Related business
Manufacturer
Unknown
Mission
Spacecraft
Bus & Motor
Unknown
Mass
Unknown
Launch date (UTC)
1965-04-03 (61 years ago)
Launch vehicle
Unknown
Launch site
Air Force Western Test Range (AFWTR)
Object type
Payload
Rocket body
Debris
Shape & HBR
Unknown shape, 0.1 m
Radar Cross Section
Medium (>0.1 m² and <1 m²)

Expand to show TLE details & history
Last TLE update: 5 days ago

TLE from 5 days ago
0 OPS 4682 DEB
1 38381U 65027CJ  26146.35388304 -.00000334  00000-0 -11301-2 0  9996
2 38381  90.2575  17.8633 0019665 301.4435  58.4764 13.00221999583251
Epoch: 2026-05-26T08:29Z
TLE epoch observation values (Epoch: 2026-05-26T08:29:35.494Z)
Latitude
-0.00008°
Longitude
6.53688°
Altitude
1,256.266 km
Speed
7.231 km/s
True Right ascension
01h 11m 27s
True Declination
0° 00' 00"
Sunlit
Object was in daylight at epoch
Visualization orbit readout
Latitude
Unknown
Longitude
Unknown
Altitude
Unknown
Speed
Unknown
Apparent Right ascension
Unknown
Apparent Declination
Unknown
Sunlit
N/A
Visualization observer readout
Local Sidereal Time
08:23:17
Azimuth
Unknown
Elevation
Unknown
Doppler factor
Unknown
Orbital elements
Apogee altitude
1,273.361 km
Perigee altitude
1,243.326 km
Semi-major axis
7,636.481 km
Eccentricity
0.00197
Inclination
90.2575°
RAAN
17.8633°
Arg. of periapsis
301.4435°
True anomaly
58.66874°
Mean anomaly
58.4764°
Eccentric anomaly
58.57254°
Mean motion
3.2524 °/min
Orbital period
110.69 mins
BSTAR
-0.0011301
Loading maneuver chart data...
Computing Atmospheric mass density...
Loading historical data...
Loading historical data...
Loading historical data...
Loading historical data...
Loading historical data...
Loading historical data...
Loading historical data...

Documentation

Showing up to 5 results
|